Regional Weather Roundup
Issued by NWS

Home | Current Version | Previous Version | Text Only | Print | Product List | Glossary Off
Versions: 1 2 3 4 5 6 7 8 9 10 11 12 13 14 15 16 17 18 19 20 21 22 23 24 25 26 27 28 29 30 31 32 33 34 35 36 37 38 39 40 41 42 43 44 45 46 47 48 49 50

000
ASUS43 KDMX 170907
RWRIA

WEATHER ROUNDUP FOR IOWA
NATIONAL WEATHER SERVICE DES MOINES IA
300 AM CST WED DEC 17 2014

NOTE: "FAIR" INDICATES FEW OR NO CLOUDS BELOW 12,000 FEET WITH NO
SIGNIFICANT WEATHER AND/OR OBSTRUCTIONS TO VISIBILITY.

* - THESE STATIONS ARE NOT NWS STATIONS...THUS NOT UNDER NWS
QUALITY CONTROL.  THEY ALSO DO NOT REPORT WEATHER SUCH
AS PRECIPITATION OR FOG.

IAZ001>003-012>014-020>022-031>034-043>046-171000-
   NORTHWEST IOWA

CITY           SKY/WX    TMP DP  RH WIND       PRES   REMARKS
CARROLL *      CLEAR     12   9  85 W7        30.35R WCI   2
CHEROKEE *     PTCLDY    10   9  92 CALM      30.36R
DENISON *      CLEAR     12  10  92 NW6       30.33S WCI   3
LE MARS *      CLEAR      9   7  92 CALM      30.38R
ORANGE CITY *  CLEAR      9   5  85 W6        30.34R WCI  -1
SHELDON *      CLEAR      7   5  92 NW5       30.32R WCI  -2
SIOUX CITY     PTCLDY    13   8  81 NW7       30.38R WCI   3
SPENCER        CLEAR     10   5  80 W8        30.33R WCI  -2
STORM LAKE *   CLEAR      9   5  85 W7        30.33R WCI  -3
$$

IAZ055>058-069>071-079>083-090>094-171000-
   SOUTHWEST IOWA

CITY           SKY/WX    TMP DP  RH WIND       PRES   REMARKS
ATLANTIC *     MOCLDY    16  12  86 N8        30.35R WCI   5
AUDUBON *      CLEAR     14   9  79 NW6       30.34R WCI   5
CLARINDA *     CLOUDY    19  14  79 N9        30.38R WCI   9
COUNCIL BLFS * CLOUDY    18  14  86 N8        30.34S WCI   7
CRESTON *      CLOUDY    18  14  86 N8        30.32S WCI   7
HARLAN  *      CLEAR     16  14  93 N7        30.38S WCI   6
LAMONI         CLOUDY    20  16  84 NW7       30.32R WCI  11
RED OAK *      CLOUDY    18  14  86 NW7       30.37R WCI   8
SHENANDOAH *   CLOUDY    19  16  86 N12       30.38R WCI   7
$$

IAZ047>049-059>061-072>074-084-171000-
   CENTRAL IOWA

CITY           SKY/WX    TMP DP  RH WIND       PRES   REMARKS
AMES           CLOUDY    15  10  80 NW10      30.34R WCI   2
ANKENY *       CLOUDY    18  12  79 NW9       30.34S WCI   6
CHARITON *     CLOUDY    19  14  79 NW10      30.33R WCI   8
DES MOINES     FLURRIES  19  11  70 NW8       30.35R WCI   9
GRINNELL*      CLOUDY    19  14  79 W8        30.31S WCI   9
KNOXVILLE *    CLOUDY    16  10  79 NW12      30.33R WCI   3
MARSHALLTOWN   CLOUDY    17  13  84 NW9       30.30R WCI   6
PELLA *        CLOUDY    18  12  79 W7        30.35S WCI   8
PERRY *          N/A     14  12  92 NW7       30.36R WCI   4
$$

IAZ004>006-015-016-023>025-035-036-171000-
   NORTH CENTRAL IOWA

CITY           SKY/WX    TMP DP  RH WIND       PRES   REMARKS
ALGONA *       CLEAR     12  10  92 NW7       30.32R WCI   2
CLARION *      MOCLDY    12  10  92 W9        30.32R WCI   0
ESTHERVILLE    CLEAR     10   7  87 W8        30.31R WCI  -2
FORT DODGE *   CLEAR     12   7  79 NW5       30.33R WCI   4
MASON CITY     PTCLDY    11   8  88 NW13      30.30R WCI  -4
FOREST CITY *  FLURRIES  12   9  85 NW8       30.29R WCI   1
IOWA FALLS *     N/A     14  10  85 NW12      30.31S WCI   0
$$

IAZ007>011-017>019-026>030-037>042-050>054-066-171000-
   NORTHEAST IOWA

CITY           SKY/WX    TMP DP  RH WIND       PRES   REMARKS
CEDAR RAPIDS   CLOUDY    19  15  84 NW10      30.28R WCI   7
CHARLES CITY * CLOUDY    16  14  93 W9        30.28R WCI   4
CLINTON *      CLOUDY    21  16  79 NW13      30.28S WCI   9
DECORAH *      CLOUDY    19  16  86 NW10G16   30.23R WCI   8
DUBUQUE        CLOUDY    21  16  81 N9        30.22R WCI  11
MONTICELLO *   CLOUDY    23  16  74 NW9       30.26R WCI  13
OELWEIN *      CLOUDY    19  14  79 NW15      30.27R WCI   5
WATERLOO       CLOUDY    17  13  84 NW9       30.29R WCI   6
$$

IAZ064-065-067-068-078-171000-
   EAST CENTRAL IOWA

CITY           SKY/WX    TMP DP  RH WIND       PRES   REMARKS
DAVENPORT      CLOUDY    21  15  78 NW15      30.28R WCI   8
IOWA CITY      CLOUDY    20  13  74 NW12      30.32R WCI   8
MT. PLEASANT * CLOUDY    18  14  86 W7        30.33S WCI   8
MUSCATINE *    CLOUDY    21  14  73 NW15      30.33R WCI   8
QUAD CITIES    CLOUDY    22  15  75 NW10      30.28R WCI  11
$$

IAZ062-063-075>077-085>089-095>099-171000-
   SOUTHEAST IOWA

CITY           SKY/WX    TMP DP  RH WIND       PRES   REMARKS
BURLINGTON     CLOUDY    20  15  81 W7        30.31S WCI  11
FAIRFIELD *    FLURRIES  18  12  79 NW13      30.33S WCI   4
FORT MADISON * CLOUDY    21  18  86 NW9       30.32S WCI  11
KEOKUK *       CLOUDY    21  18  86 N10G17    30.32R WCI  10
OSKALOOSA *    CLOUDY    16  12  86 NW9       30.33F WCI   4
CENTERVILLE *  CLOUDY    23  18  80 W9        30.32S WCI  13
OTTUMWA        CLOUDY    16  10  77 NW10      30.33S WCI   4
WASHINGTON *   FLURRIES  19  18  93 W13       30.32R WCI   7
$$

ABBREVIATIONS USED IN REMARKS
   TC - TEMPERATURES IN CELSIUS
  WCI - WIND CHILL INDEX
   HX - HEAT INDEX
  VSB - VISIBILITY
$$



USA.gov is the U.S. government's official web portal to all federal, state and local government web resources and services.